Stündliche Wetter Abazivka

Heute, 4 März, Donnerstag

Zeit Temperatur Niederschläge Wind Luftdruck Luftfeuchtigkeit
00:00 -1°C° 0 mm 3 m/S 756 mmHg 91%
01:00 -1°C° 0 mm 3 m/S 756 mmHg 92%
02:00 -2°C° 0 mm 4 m/S 755 mmHg 93%
03:00 -2°C° 0 mm 4 m/S 755 mmHg 92%
04:00 -2°C° 0 mm 4 m/S 755 mmHg 92%
05:00 -2°C° 0 mm 4 m/S 754 mmHg 91%
06:00 -2°C° 0 mm 5 m/S 754 mmHg 86%
07:00 -2°C° 0 mm 6 m/S 753 mmHg 82%
08:00 -2°C° 0 mm 6 m/S 752 mmHg 76%
09:00 0°C° 0 mm 7 m/S 752 mmHg 69%
10:00 +3°C° 0 mm 7 m/S 751 mmHg 62%
11:00 +4°C° 0 mm 8 m/S 751 mmHg 54%
12:00 +5°C° 0 mm 8 m/S 750 mmHg 55%
13:00 +6°C° 0 mm 8 m/S 749 mmHg 56%
14:00 +7°C° 0 mm 9 m/S 748 mmHg 57%
15:00 +7°C° 0 mm 8 m/S 748 mmHg 60%
16:00 +6°C° 0 mm 7 m/S 747 mmHg 62%
17:00 +6°C° 0 mm 7 m/S 747 mmHg 65%
18:00 +5°C° 0 mm 7 m/S 747 mmHg 69%
19:00 +4°C° 0 mm 7 m/S 747 mmHg 73%
20:00 +4°C° 0 mm 7 m/S 746 mmHg 78%
21:00 +3°C° 0 mm 6 m/S 746 mmHg 82%
22:00 +3°C° 0 mm 6 m/S 746 mmHg 86%
23:00 +2°C° 0 mm 5 m/S 746 mmHg 90%

Morgen, 5 März, Freitag

Zeit Temperatur Niederschläge Wind Luftdruck Luftfeuchtigkeit
00:00 +2°C° 0 mm 5 m/S 746 mmHg 90%
01:00 +2°C° 0 mm 5 m/S 746 mmHg 90%
02:00 +2°C° 0 mm 5 m/S 746 mmHg 90%
03:00 +3°C° 0 mm 4 m/S 746 mmHg 91%
04:00 +1°C° 0 mm 4 m/S 746 mmHg 92%
05:00 +1°C° 0 mm 4 m/S 746 mmHg 92%
06:00 +2°C° 0 mm 3 m/S 747 mmHg 91%
07:00 +2°C° 0 mm 3 m/S 747 mmHg 91%
08:00 +2°C° 0 mm 3 m/S 747 mmHg 90%
09:00 +2°C° 0 mm 3 m/S 747 mmHg 86%
10:00 +3°C° 0 mm 3 m/S 748 mmHg 82%
11:00 +4°C° 0 mm 2 m/S 748 mmHg 78%
12:00 +5°C° 0 mm 2 m/S 748 mmHg 75%
13:00 +5°C° 0 mm 2 m/S 748 mmHg 72%
14:00 +5°C° 0 mm 2 m/S 748 mmHg 69%
15:00 +5°C° 0 mm 2 m/S 748 mmHg 73%
16:00 +5°C° 0 mm 1 m/S 748 mmHg 76%
17:00 +5°C° 0 mm 1 m/S 748 mmHg 79%
18:00 +3°C° 0.1 mm 2 m/S 748 mmHg 85%
19:00 +3°C° 0.1 mm 2 m/S 749 mmHg 90%
20:00 +2°C° 0.1 mm 2 m/S 749 mmHg 96%
21:00 +1°C° 0.3 mm 3 m/S 749 mmHg 96%
22:00 +1°C° 0.3 mm 3 m/S 749 mmHg 96%
23:00 -1°C° 0.3 mm 4 m/S 748 mmHg 96%

übermorgen, 6 März, Samstag

Zeit Temperatur Niederschläge Wind Luftdruck Luftfeuchtigkeit
00:00 -1°C° 1 mm 5 m/S 748 mmHg 96%
01:00 -2°C° 1 mm 5 m/S 749 mmHg 96%
02:00 -3°C° 1 mm 6 m/S 749 mmHg 96%
03:00 -4°C° 1 mm 6 m/S 749 mmHg 96%
04:00 -4°C° 1 mm 6 m/S 749 mmHg 95%
05:00 -4°C° 1 mm 6 m/S 749 mmHg 95%
06:00 -4°C° 0.1 mm 6 m/S 750 mmHg 91%
07:00 -4°C° 0.1 mm 6 m/S 750 mmHg 87%
08:00 -4°C° 0.1 mm 6 m/S 751 mmHg 83%
09:00 -4°C° 0 mm 6 m/S 752 mmHg 79%
10:00 -4°C° 0 mm 7 m/S 752 mmHg 75%
11:00 -4°C° 0 mm 7 m/S 753 mmHg 71%
12:00 -4°C° 0 mm 7 m/S 753 mmHg 66%
13:00 -3°C° 0 mm 7 m/S 753 mmHg 60%
14:00 -3°C° 0 mm 7 m/S 753 mmHg 55%
15:00 -4°C° 0 mm 6 m/S 754 mmHg 59%
16:00 -4°C° 0 mm 6 m/S 754 mmHg 62%
17:00 -5°C° 0 mm 5 m/S 754 mmHg 66%
18:00 -4°C° 0 mm 4 m/S 755 mmHg 70%
19:00 -5°C° 0 mm 3 m/S 756 mmHg 73%
20:00 -5°C° 0 mm 3 m/S 756 mmHg 77%
21:00 -5°C° 0 mm 3 m/S 756 mmHg 78%
22:00 -5°C° 0 mm 3 m/S 756 mmHg 80%
23:00 -5°C° 0 mm 3 m/S 756 mmHg 81%

7 März, Sonntag

Zeit Temperatur Niederschläge Wind Luftdruck Luftfeuchtigkeit
00:00 -6°C° 0 mm 3 m/S 757 mmHg 83%
01:00 -5°C° 0 mm 2 m/S 757 mmHg 84%
02:00 -5°C° 0 mm 2 m/S 757 mmHg 86%
03:00 -5°C° 0 mm 2 m/S 757 mmHg 87%
04:00 -5°C° 0 mm 2 m/S 756 mmHg 88%
05:00 -6°C° 0 mm 3 m/S 756 mmHg 89%
06:00 -5°C° 0 mm 3 m/S 756 mmHg 84%
07:00 -5°C° 0 mm 4 m/S 756 mmHg 80%
08:00 -5°C° 0 mm 5 m/S 756 mmHg 76%
09:00 -5°C° 0 mm 6 m/S 755 mmHg 70%
10:00 -4°C° 0 mm 7 m/S 754 mmHg 63%
11:00 -3°C° 0 mm 7 m/S 754 mmHg 57%
12:00 -4°C° 0 mm 8 m/S 753 mmHg 54%
13:00 -2°C° 0 mm 8 m/S 752 mmHg 51%
14:00 -3°C° 0 mm 9 m/S 752 mmHg 49%
15:00 -2°C° 0 mm 8 m/S 751 mmHg 52%
16:00 -2°C° 0 mm 7 m/S 751 mmHg 56%
17:00 -3°C° 0 mm 7 m/S 750 mmHg 60%
18:00 -3°C° 0 mm 7 m/S 750 mmHg 61%
19:00 -3°C° 0 mm 7 m/S 750 mmHg 63%
20:00 -3°C° 0 mm 7 m/S 750 mmHg 64%
21:00 -3°C° 0 mm 7 m/S 749 mmHg 65%
22:00 -3°C° 0 mm 7 m/S 749 mmHg 65%
23:00 -3°C° 0 mm 7 m/S 749 mmHg 66%

8 März, Montag

Zeit Temperatur Niederschläge Wind Luftdruck Luftfeuchtigkeit
00:00 -3°C° 0 mm 7 m/S 748 mmHg 66%
01:00 -3°C° 0 mm 7 m/S 748 mmHg 67%
02:00 -3°C° 0 mm 7 m/S 748 mmHg 68%
03:00 -3°C° 0 mm 7 m/S 747 mmHg 72%
04:00 -3°C° 0 mm 7 m/S 747 mmHg 75%
05:00 -4°C° 0 mm 7 m/S 747 mmHg 79%
06:00 -3°C° 0 mm 7 m/S 747 mmHg 78%
07:00 -3°C° 0 mm 7 m/S 748 mmHg 78%
08:00 -3°C° 0 mm 7 m/S 748 mmHg 77%
09:00 -2°C° 0 mm 7 m/S 748 mmHg 74%
10:00 -2°C° 0 mm 6 m/S 748 mmHg 70%
11:00 -1°C° 0 mm 6 m/S 748 mmHg 67%
12:00 -1°C° 0 mm 6 m/S 748 mmHg 64%
13:00 -1°C° 0 mm 6 m/S 748 mmHg 62%
14:00 +1°C° 0 mm 5 m/S 749 mmHg 59%
15:00 0°C° 0 mm 5 m/S 748 mmHg 62%
16:00 0°C° 0 mm 4 m/S 748 mmHg 65%
17:00 0°C° 0 mm 3 m/S 748 mmHg 68%
18:00 -1°C° 0 mm 3 m/S 749 mmHg 71%
19:00 -1°C° 0 mm 2 m/S 749 mmHg 74%
20:00 -2°C° 0 mm 2 m/S 749 mmHg 77%
21:00 0°C° 0.1 mm 1 m/S 749 mmHg 80%
22:00 0°C° 0.1 mm 1 m/S 749 mmHg 84%
23:00 0°C° 0.1 mm 1 m/S 749 mmHg 88%

9 März, Dienstag

Zeit Temperatur Niederschläge Wind Luftdruck Luftfeuchtigkeit
00:00 0°C° 0.6 mm 1 m/S 749 mmHg 90%
01:00 0°C° 0.6 mm 1 m/S 749 mmHg 93%
02:00 0°C° 0.6 mm 1 m/S 749 mmHg 96%
03:00 -3°C° 0.6 mm 2 m/S 749 mmHg 95%
04:00 -3°C° 0.6 mm 2 m/S 749 mmHg 94%
05:00 -3°C° 0.6 mm 2 m/S 749 mmHg 93%
06:00 -4°C° 0 mm 3 m/S 749 mmHg 91%
07:00 -4°C° 0 mm 3 m/S 749 mmHg 89%
08:00 -4°C° 0 mm 4 m/S 750 mmHg 86%
09:00 -3°C° 0 mm 4 m/S 750 mmHg 81%
10:00 -2°C° 0 mm 3 m/S 750 mmHg 75%
11:00 -1°C° 0 mm 3 m/S 751 mmHg 70%
12:00 -1°C° 0.1 mm 3 m/S 751 mmHg 68%
13:00 -2°C° 0.1 mm 4 m/S 751 mmHg 66%
14:00 -2°C° 0.1 mm 4 m/S 752 mmHg 64%
15:00 -2°C° 0.1 mm 4 m/S 752 mmHg 67%
16:00 -3°C° 0.1 mm 4 m/S 752 mmHg 69%
17:00 -5°C° 0.1 mm 5 m/S 752 mmHg 71%
18:00 -4°C° 0 mm 4 m/S 753 mmHg 71%
19:00 -5°C° 0 mm 4 m/S 754 mmHg 70%
20:00 -7°C° 0 mm 4 m/S 754 mmHg 70%
21:00 -7°C° 0 mm 4 m/S 755 mmHg 69%
22:00 -6°C° 0 mm 3 m/S 755 mmHg 69%
23:00 -7°C° 0 mm 3 m/S 756 mmHg 69%
Mehr zeigen

Wir brauchen deine Erlaubnis

Meteoprog und unser Service Anbieter werden persönliche Daten aufbewahren, so wie Cookies, Geräte Bezeichnung oder ähnliche Technologien von deinem Gerät und Prozess, so wie Persönliche Daten Inhalte und Werbungen, genauso wie social Media und den Verkehr zu analysieren.

  • Aufbewahrung und/oder Zugang zu deiner Geräte Informationen.

    Cookies, Geräte Bezeichnung oder andere Informationen, können aufbewahrt oder Zugang zu deinem Gerät erhalten, für den Grund, der oben angegeben wird.

  • Personalisierte Werbung und Inhalte, Messungen, Einblick in das Publikum und Produkt Entwicklung.

    Werbungen und Inhalte können personalisiert werden, basierend auf ein Profil. Mehr Daten können besser personalisierte Werbungen und Inhalte hinzufügen. Werbung und Inhalte können gezeigt und gemessen werden. Einblicke über das Publikum, welche die Werbung gesehen haben und den Inhalt, können abgeleitet werden. So wie Daten können genutzt werden, um es zu verbessern oder die Benutzer Erfahrung zu verbessern das System und die Software.

Wenn du “Ich stimme zu” klickst, erlaubst du uns, die Cookies zu benutzen die Geräte Bezeichnung, den Web oder ähnliche Technologien zu benutzen. Deine Settings, können in deinem Gerät bei deinem Browser geändert werden.

Für den bestimmten Zweck, berechtigten Interessen beruhen darauf, mehr als auf den Inhalt. Du kannst mehr darüber in unseren Privaten und Cookie Politik lesen.